Location: Vihti�l�
(61.3833°N, 23.0667°E)
Time: 04:27:43
(UTC+00:00)

Cosmos 2297 Rocket - Pass Details

Date: 29 November 2020
Orbit: 840 x 843 km, 71.0° (Epoch: 19 January)

Event Time Altitude Azimuth Distance (km) Brightness Sun altitude
Exits shadow 04:30:07 26° 305° (NW) 1,612 3.1 -17.2°
Maximum altitude 04:32:17 35° 346° (NNW) 1,356 3.0 -16.9°
Drops below altitude 10° 04:37:28 10° 51° (NE) 2,476 5.1 -16.3°
Sets 04:40:09 0° 61° (ENE) 3,411 6.1 -16.0°
